When you browse on this site, cookies collect data to enhance your experience and personalize the content and advertising you see.
Visit our Privacy Policy to learn more. By continuing to use the site, you agree to this use of cookies and data.
  • Em Portugal
  • Lista de países
  • Para 7 dias
  • Temperatura da água
  • Mapas de satélite
  • Mapa do tempo
  • Widgets de tempo
  • user-avatar
    Iniciar Sessão

    Previsão horária em Kinice

    Hoje, 24 Fevereiro, Domingo

    Tempo Temperatura Precipitação Vento Pressão Humidade
    00:00 -2°C° 0 mm 3 m/s 766 mmHg 40%
    01:00 -1°C° 0 mm 3 m/s 766 mmHg 40%
    02:00 -1°C° 0 mm 3 m/s 765 mmHg 44%
    03:00 -1°C° 0 mm 3 m/s 765 mmHg 47%
    04:00 -1°C° 0 mm 3 m/s 765 mmHg 50%
    05:00 -1°C° 0 mm 3 m/s 764 mmHg 49%
    06:00 -1°C° 0 mm 3 m/s 764 mmHg 48%
    07:00 -1°C° 0 mm 3 m/s 764 mmHg 47%
    08:00 0°C° 0 mm 3 m/s 764 mmHg 46%
    09:00 0°C° 0 mm 4 m/s 764 mmHg 46%
    10:00 +1°C° 0 mm 4 m/s 764 mmHg 45%
    11:00 +3°C° 0 mm 4 m/s 764 mmHg 46%
    12:00 +4°C° 0 mm 4 m/s 764 mmHg 46%
    13:00 +5°C° 0 mm 4 m/s 764 mmHg 47%
    14:00 +5°C° 0 mm 4 m/s 763 mmHg 50%
    15:00 +4°C° 0 mm 3 m/s 763 mmHg 54%
    16:00 +4°C° 0 mm 3 m/s 763 mmHg 57%
    17:00 +3°C° 0 mm 4 m/s 763 mmHg 59%
    18:00 +1°C° 0 mm 4 m/s 763 mmHg 60%
    19:00 0°C° 0 mm 4 m/s 762 mmHg 61%
    20:00 0°C° 0 mm 4 m/s 762 mmHg 65%
    21:00 0°C° 0 mm 4 m/s 762 mmHg 69%
    22:00 0°C° 0 mm 4 m/s 762 mmHg 73%
    23:00 0°C° 0 mm 4 m/s 762 mmHg 79%

    Amanhã, 25 Fevereiro, Segunda-feira

    Tempo Temperatura Precipitação Vento Pressão Humidade
    00:00 +1°C° 0 mm 3 m/s 762 mmHg 85%
    01:00 0°C° 0 mm 3 m/s 762 mmHg 92%
    02:00 +1°C° 0 mm 3 m/s 762 mmHg 93%
    03:00 +1°C° 0 mm 3 m/s 762 mmHg 95%
    04:00 +1°C° 0 mm 3 m/s 762 mmHg 97%
    05:00 +1°C° 0 mm 3 m/s 762 mmHg 97%
    06:00 +1°C° 0 mm 3 m/s 762 mmHg 97%
    07:00 +2°C° 0 mm 3 m/s 762 mmHg 97%
    08:00 +2°C° 0 mm 3 m/s 762 mmHg 94%
    09:00 +3°C° 0 mm 4 m/s 762 mmHg 92%
    10:00 +3°C° 0 mm 4 m/s 762 mmHg 90%
    11:00 +4°C° 0 mm 3 m/s 762 mmHg 83%
    12:00 +7°C° 0 mm 3 m/s 762 mmHg 77%
    13:00 +8°C° 0 mm 3 m/s 762 mmHg 71%
    14:00 +7°C° 0 mm 3 m/s 762 mmHg 72%
    15:00 +7°C° 0 mm 3 m/s 762 mmHg 72%
    16:00 +7°C° 0 mm 3 m/s 761 mmHg 73%
    17:00 +4°C° 0 mm 3 m/s 761 mmHg 78%
    18:00 +3°C° 0 mm 3 m/s 761 mmHg 83%
    19:00 +2°C° 0 mm 3 m/s 761 mmHg 88%
    20:00 +2°C° 0 mm 3 m/s 761 mmHg 90%
    21:00 +2°C° 0 mm 3 m/s 761 mmHg 92%
    22:00 +1°C° 0 mm 3 m/s 760 mmHg 94%
    23:00 +2°C° 0 mm 3 m/s 760 mmHg 95%

    Depois de amanhã, 26 Fevereiro, Terça-feira

    Tempo Temperatura Precipitação Vento Pressão Humidade
    00:00 +2°C° 0 mm 3 m/s 760 mmHg 96%
    01:00 +2°C° 0 mm 3 m/s 760 mmHg 96%
    02:00 +3°C° 0 mm 3 m/s 759 mmHg 96%
    03:00 +3°C° 0 mm 3 m/s 759 mmHg 95%
    04:00 +4°C° 0 mm 3 m/s 758 mmHg 95%
    05:00 +3°C° 0 mm 3 m/s 758 mmHg 94%
    06:00 +3°C° 0 mm 4 m/s 758 mmHg 93%
    07:00 +3°C° 0 mm 4 m/s 757 mmHg 91%
    08:00 +3°C° 0 mm 4 m/s 758 mmHg 90%
    09:00 +4°C° 0 mm 4 m/s 758 mmHg 88%
    10:00 +4°C° 0 mm 4 m/s 758 mmHg 86%
    11:00 +5°C° 0 mm 4 m/s 758 mmHg 81%
    12:00 +5°C° 0 mm 4 m/s 758 mmHg 77%
    13:00 +6°C° 0 mm 4 m/s 758 mmHg 73%
    14:00 +6°C° 0 mm 4 m/s 758 mmHg 72%
    15:00 +7°C° 0 mm 3 m/s 758 mmHg 71%
    16:00 +7°C° 0 mm 3 m/s 758 mmHg 70%
    17:00 +5°C° 0 mm 3 m/s 759 mmHg 76%
    18:00 +5°C° 0 mm 2 m/s 759 mmHg 81%
    19:00 +4°C° 0 mm 2 m/s 759 mmHg 87%
    20:00 +3°C° 0 mm 2 m/s 759 mmHg 87%
    21:00 +4°C° 0 mm 1 m/s 759 mmHg 88%
    22:00 +4°C° 0 mm 1 m/s 759 mmHg 88%
    23:00 +4°C° 0 mm 1 m/s 759 mmHg 89%

    27 Fevereiro, Quarta-feira

    Tempo Temperatura Precipitação Vento Pressão Humidade
    00:00 +3°C° 0 mm 1 m/s 759 mmHg 89%
    01:00 +3°C° 0 mm 1 m/s 759 mmHg 89%
    02:00 +3°C° 0 mm 1 m/s 758 mmHg 90%
    03:00 +2°C° 0 mm 2 m/s 758 mmHg 92%
    04:00 +2°C° 0 mm 2 m/s 758 mmHg 93%
    05:00 +2°C° 0 mm 2 m/s 757 mmHg 93%
    06:00 +2°C° 0 mm 2 m/s 757 mmHg 92%
    07:00 +2°C° 0 mm 2 m/s 756 mmHg 92%
    08:00 +3°C° 0 mm 2 m/s 756 mmHg 86%
    09:00 +4°C° 0 mm 3 m/s 756 mmHg 81%
    10:00 +5°C° 0 mm 3 m/s 756 mmHg 76%
    11:00 +8°C° 0 mm 3 m/s 756 mmHg 71%
    12:00 +9°C° 0 mm 3 m/s 755 mmHg 65%
    13:00 +10°C° 0 mm 4 m/s 755 mmHg 60%
    14:00 +10°C° 0 mm 4 m/s 754 mmHg 61%
    15:00 +8°C° 0 mm 4 m/s 754 mmHg 62%
    16:00 +8°C° 0 mm 4 m/s 753 mmHg 63%
    17:00 +7°C° 0 mm 4 m/s 753 mmHg 68%
    18:00 +6°C° 0 mm 4 m/s 753 mmHg 72%
    19:00 +5°C° 0 mm 4 m/s 752 mmHg 77%
    20:00 +4°C° 0 mm 4 m/s 752 mmHg 78%
    21:00 +4°C° 0 mm 4 m/s 751 mmHg 79%
    22:00 +4°C° 0 mm 4 m/s 751 mmHg 80%
    23:00 +4°C° 0 mm 4 m/s 750 mmHg 82%

    28 Fevereiro, Quinta-feira

    Tempo Temperatura Precipitação Vento Pressão Humidade
    00:00 +4°C° 0 mm 4 m/s 750 mmHg 83%
    01:00 +4°C° 0 mm 4 m/s 749 mmHg 85%
    02:00 +3°C° 0 mm 4 m/s 749 mmHg 86%
    03:00 +3°C° 0 mm 4 m/s 748 mmHg 88%
    04:00 +3°C° 0 mm 4 m/s 748 mmHg 89%
    05:00 +3°C° 0 mm 4 m/s 747 mmHg 89%
    06:00 +3°C° 0 mm 4 m/s 747 mmHg 88%
    07:00 +3°C° 0 mm 4 m/s 746 mmHg 88%
    08:00 +3°C° 0 mm 5 m/s 746 mmHg 83%
    09:00 +5°C° 0 mm 5 m/s 746 mmHg 78%
    10:00 +5°C° 0 mm 6 m/s 746 mmHg 73%
    11:00 +7°C° 0 mm 6 m/s 746 mmHg 72%
    12:00 +7°C° 0 mm 6 m/s 746 mmHg 71%
    13:00 +8°C° 0 mm 6 m/s 746 mmHg 70%
    14:00 +7°C° 0 mm 6 m/s 746 mmHg 72%
    15:00 +7°C° 0 mm 5 m/s 746 mmHg 74%
    16:00 +6°C° 0 mm 5 m/s 746 mmHg 76%
    17:00 +5°C° 0 mm 4 m/s 747 mmHg 80%
    18:00 +4°C° 0 mm 4 m/s 747 mmHg 83%
    19:00 +4°C° 0 mm 3 m/s 747 mmHg 86%
    20:00 +3°C° 0 mm 3 m/s 748 mmHg 89%
    21:00 +3°C° 0 mm 3 m/s 748 mmHg 92%
    22:00 +2°C° 0 mm 3 m/s 748 mmHg 95%
    23:00 +2°C° 0 mm 3 m/s 748 mmHg 94%

    1 Março, Sexta-feira

    Tempo Temperatura Precipitação Vento Pressão Humidade
    00:00 +2°C° 0 mm 2 m/s 748 mmHg 93%
    01:00 +2°C° 0 mm 2 m/s 748 mmHg 93%
    02:00 +2°C° 0 mm 2 m/s 748 mmHg 90%
    03:00 +1°C° 0 mm 2 m/s 749 mmHg 88%
    04:00 +1°C° 0 mm 2 m/s 749 mmHg 86%
    05:00 +1°C° 0 mm 2 m/s 749 mmHg 85%
    06:00 -1°C° 0 mm 2 m/s 749 mmHg 85%
    07:00 -1°C° 0 mm 2 m/s 749 mmHg 85%
    08:00 +2°C° 0 mm 2 m/s 750 mmHg 79%
    09:00 +2°C° 0 mm 3 m/s 751 mmHg 72%
    10:00 +3°C° 0 mm 3 m/s 751 mmHg 66%
    11:00 +4°C° 0 mm 3 m/s 751 mmHg 62%
    12:00 +4°C° 0 mm 3 m/s 752 mmHg 58%
    13:00 +5°C° 0 mm 3 m/s 752 mmHg 53%
    14:00 +5°C° 0 mm 3 m/s 752 mmHg 53%
    15:00 +4°C° 0 mm 3 m/s 752 mmHg 54%
    16:00 +4°C° 0 mm 3 m/s 752 mmHg 54%
    17:00 +3°C° 0 mm 3 m/s 753 mmHg 60%
    18:00 +2°C° 0 mm 3 m/s 753 mmHg 67%
    19:00 0°C° 0 mm 3 m/s 753 mmHg 73%
    20:00 +1°C° 0 mm 2 m/s 754 mmHg 76%
    21:00 -1°C° 0 mm 2 m/s 754 mmHg 79%
    22:00 -1°C° 0 mm 2 m/s 754 mmHg 82%
    23:00 -1°C° 0 mm 2 m/s 755 mmHg 81%
    Mostrar mais